Tiempo cada hora Muraevnya

Hoy, 25 Octubre, Domingo

Tiempo Temperatura Precipitaciones Viento Presión Humedad
00:00 +9°C° 0.1 mm 2 mps 742 mmHg 87%
01:00 +9°C° 2 mm 2 mps 742 mmHg 91%
02:00 +9°C° 2 mm 2 mps 742 mmHg 94%
03:00 +9°C° 2 mm 2 mps 741 mmHg 97%
04:00 +9°C° 2.8 mm 3 mps 741 mmHg 96%
05:00 +8°C° 2.8 mm 4 mps 741 mmHg 94%
06:00 +8°C° 2.8 mm 6 mps 741 mmHg 93%
07:00 +8°C° 0 mm 5 mps 742 mmHg 91%
08:00 +8°C° 0 mm 5 mps 742 mmHg 89%
09:00 +8°C° 0 mm 5 mps 743 mmHg 88%
10:00 +8°C° 0 mm 5 mps 744 mmHg 85%
11:00 +8°C° 0 mm 6 mps 744 mmHg 83%
12:00 +9°C° 0 mm 6 mps 745 mmHg 80%
13:00 +9°C° 0 mm 6 mps 746 mmHg 77%
14:00 +9°C° 0 mm 6 mps 746 mmHg 75%
15:00 +10°C° 0 mm 5 mps 747 mmHg 72%
16:00 +9°C° 0 mm 5 mps 747 mmHg 77%
17:00 +8°C° 0 mm 4 mps 747 mmHg 81%
18:00 +8°C° 0 mm 3 mps 747 mmHg 86%
19:00 +7°C° 0 mm 3 mps 748 mmHg 88%
20:00 +7°C° 0 mm 3 mps 749 mmHg 90%
21:00 +7°C° 0 mm 2 mps 749 mmHg 92%
22:00 +7°C° 0 mm 2 mps 749 mmHg 92%
23:00 +6°C° 0 mm 2 mps 750 mmHg 92%

Mañana, 26 Octubre, Lunes

Tiempo Temperatura Precipitaciones Viento Presión Humedad
00:00 +6°C° 0 mm 2 mps 750 mmHg 92%
01:00 +6°C° 0 mm 2 mps 750 mmHg 90%
02:00 +7°C° 0 mm 3 mps 751 mmHg 89%
03:00 +7°C° 0 mm 3 mps 751 mmHg 88%
04:00 +5°C° 0 mm 3 mps 751 mmHg 89%
05:00 +5°C° 0 mm 3 mps 751 mmHg 90%
06:00 +4°C° 0 mm 3 mps 751 mmHg 91%
07:00 +5°C° 0 mm 3 mps 752 mmHg 89%
08:00 +5°C° 0 mm 3 mps 752 mmHg 87%
09:00 +7°C° 0 mm 3 mps 752 mmHg 85%
10:00 +8°C° 0 mm 2 mps 752 mmHg 79%
11:00 +9°C° 0 mm 2 mps 753 mmHg 74%
12:00 +10°C° 0 mm 2 mps 753 mmHg 68%
13:00 +10°C° 0 mm 2 mps 753 mmHg 67%
14:00 +12°C° 0 mm 2 mps 753 mmHg 65%
15:00 +12°C° 0 mm 2 mps 753 mmHg 63%
16:00 +11°C° 0 mm 1 mps 753 mmHg 68%
17:00 +10°C° 0 mm 1 mps 753 mmHg 73%
18:00 +9°C° 0 mm 1 mps 753 mmHg 77%
19:00 +9°C° 0 mm 1 mps 754 mmHg 79%
20:00 +8°C° 0 mm 1 mps 754 mmHg 82%
21:00 +8°C° 0 mm 1 mps 755 mmHg 84%
22:00 +7°C° 0 mm 2 mps 755 mmHg 87%
23:00 +6°C° 0 mm 2 mps 755 mmHg 89%

Pasado mañana, 27 Octubre, Martes

Tiempo Temperatura Precipitaciones Viento Presión Humedad
00:00 +6°C° 0 mm 2 mps 755 mmHg 92%
01:00 +6°C° 0 mm 2 mps 755 mmHg 93%
02:00 +5°C° 0 mm 2 mps 755 mmHg 93%
03:00 +5°C° 0 mm 2 mps 756 mmHg 94%
04:00 +5°C° 0 mm 2 mps 756 mmHg 94%
05:00 +5°C° 0 mm 2 mps 756 mmHg 93%
06:00 +4°C° 0 mm 2 mps 756 mmHg 93%
07:00 +5°C° 0 mm 2 mps 756 mmHg 92%
08:00 +4°C° 0 mm 3 mps 756 mmHg 90%
09:00 +4°C° 0 mm 3 mps 757 mmHg 89%
10:00 +5°C° 0 mm 3 mps 757 mmHg 85%
11:00 +8°C° 0 mm 3 mps 757 mmHg 81%
12:00 +9°C° 0 mm 3 mps 757 mmHg 77%
13:00 +9°C° 0 mm 3 mps 757 mmHg 75%
14:00 +9°C° 0 mm 3 mps 757 mmHg 73%
15:00 +10°C° 0 mm 3 mps 757 mmHg 71%
16:00 +9°C° 0 mm 3 mps 757 mmHg 76%
17:00 +8°C° 0 mm 3 mps 757 mmHg 80%
18:00 +7°C° 0 mm 3 mps 757 mmHg 84%
19:00 +7°C° 0 mm 3 mps 757 mmHg 84%
20:00 +5°C° 0 mm 3 mps 757 mmHg 85%
21:00 +5°C° 0 mm 3 mps 757 mmHg 86%
22:00 +5°C° 0 mm 3 mps 757 mmHg 85%
23:00 +5°C° 0 mm 3 mps 757 mmHg 84%

28 Octubre, Miércoles

Tiempo Temperatura Precipitaciones Viento Presión Humedad
00:00 +4°C° 0 mm 3 mps 757 mmHg 84%
01:00 +4°C° 0 mm 3 mps 757 mmHg 83%
02:00 +4°C° 0 mm 3 mps 757 mmHg 83%
03:00 +4°C° 0 mm 3 mps 757 mmHg 83%
04:00 +3°C° 0 mm 3 mps 757 mmHg 82%
05:00 +3°C° 0 mm 3 mps 757 mmHg 80%
06:00 +3°C° 0 mm 3 mps 757 mmHg 79%
07:00 +3°C° 0 mm 4 mps 757 mmHg 76%
08:00 +3°C° 0 mm 4 mps 758 mmHg 73%
09:00 +4°C° 0 mm 4 mps 758 mmHg 70%
10:00 +5°C° 0 mm 5 mps 758 mmHg 66%
11:00 +6°C° 0 mm 5 mps 758 mmHg 61%
12:00 +7°C° 0 mm 5 mps 758 mmHg 57%
13:00 +7°C° 0 mm 5 mps 758 mmHg 57%
14:00 +8°C° 0 mm 4 mps 758 mmHg 56%
15:00 +8°C° 0 mm 4 mps 757 mmHg 55%
16:00 +7°C° 0 mm 4 mps 757 mmHg 58%
17:00 +6°C° 0 mm 4 mps 757 mmHg 60%
18:00 +5°C° 0 mm 3 mps 757 mmHg 63%
19:00 +4°C° 0 mm 4 mps 757 mmHg 61%
20:00 +4°C° 0 mm 4 mps 757 mmHg 59%
21:00 +3°C° 0 mm 4 mps 757 mmHg 57%
22:00 +3°C° 0 mm 4 mps 757 mmHg 56%
23:00 +1°C° 0 mm 4 mps 757 mmHg 55%

29 Octubre, Jueves

Tiempo Temperatura Precipitaciones Viento Presión Humedad
00:00 +2°C° 0 mm 3 mps 758 mmHg 54%
01:00 +1°C° 0 mm 3 mps 757 mmHg 56%
02:00 +1°C° 0 mm 3 mps 757 mmHg 57%
03:00 +1°C° 0 mm 3 mps 757 mmHg 58%
04:00 0°C° 0 mm 3 mps 757 mmHg 60%
05:00 0°C° 0 mm 3 mps 757 mmHg 62%
06:00 0°C° 0 mm 3 mps 757 mmHg 64%
07:00 -1°C° 0 mm 4 mps 757 mmHg 64%
08:00 0°C° 0 mm 4 mps 757 mmHg 63%
09:00 0°C° 0 mm 5 mps 757 mmHg 63%
10:00 +1°C° 0 mm 5 mps 757 mmHg 60%
11:00 +3°C° 0 mm 5 mps 757 mmHg 56%
12:00 +5°C° 0 mm 5 mps 756 mmHg 53%
13:00 +6°C° 0 mm 5 mps 756 mmHg 51%
14:00 +6°C° 0 mm 5 mps 756 mmHg 50%
15:00 +7°C° 0 mm 5 mps 755 mmHg 48%
16:00 +6°C° 0 mm 4 mps 755 mmHg 51%
17:00 +5°C° 0 mm 4 mps 755 mmHg 53%
18:00 +4°C° 0 mm 3 mps 755 mmHg 56%
19:00 +4°C° 0 mm 3 mps 755 mmHg 55%
20:00 +4°C° 0 mm 3 mps 755 mmHg 55%
21:00 +5°C° 0 mm 3 mps 754 mmHg 54%
22:00 +4°C° 0 mm 3 mps 754 mmHg 54%
23:00 +4°C° 0 mm 4 mps 754 mmHg 55%

30 Octubre, Viernes

Tiempo Temperatura Precipitaciones Viento Presión Humedad
00:00 +4°C° 0 mm 4 mps 754 mmHg 55%
01:00 +4°C° 0 mm 4 mps 754 mmHg 56%
02:00 +4°C° 0 mm 4 mps 753 mmHg 57%
03:00 +3°C° 0 mm 4 mps 753 mmHg 59%
04:00 +3°C° 0 mm 4 mps 753 mmHg 60%
05:00 +3°C° 0 mm 3 mps 753 mmHg 62%
06:00 +3°C° 0 mm 3 mps 753 mmHg 64%
07:00 +3°C° 0 mm 3 mps 753 mmHg 64%
08:00 +3°C° 0 mm 4 mps 753 mmHg 64%
09:00 +4°C° 0 mm 4 mps 753 mmHg 65%
10:00 +5°C° 0 mm 4 mps 752 mmHg 63%
11:00 +5°C° 0 mm 3 mps 752 mmHg 61%
12:00 +7°C° 0 mm 3 mps 752 mmHg 59%
13:00 +8°C° 0 mm 3 mps 752 mmHg 59%
14:00 +8°C° 0 mm 3 mps 752 mmHg 59%
15:00 +9°C° 0 mm 3 mps 752 mmHg 59%
16:00 +8°C° 0 mm 3 mps 752 mmHg 64%
17:00 +7°C° 0 mm 3 mps 752 mmHg 69%
18:00 +6°C° 0 mm 2 mps 752 mmHg 74%
19:00 +6°C° 0 mm 2 mps 752 mmHg 76%
20:00 +5°C° 0 mm 2 mps 752 mmHg 79%
21:00 +5°C° 0 mm 2 mps 752 mmHg 81%
22:00 +5°C° 0 mm 2 mps 752 mmHg 82%
23:00 +5°C° 0 mm 2 mps 752 mmHg 84%
Mostrar más

Necesitamos Su Consentimiento

Meteoprog y nuestros Proveedores de Servicios pueden almacenar y acceder a sus datos personales como cookies, identificadores de dispositivo u otras tecnologías similares de su dispositivo y procesar dichos datos para personalizar contenido y anuncios, además de ofrecer funciones de redes sociales y analizar el tráfico.

  • Almacenar y/o acceder a información en su dispositivo

    Se puede almacenar o acceder a cookies, identificadores de dispositivo u otra información de su dispositivo para los fines anteriormente indicados.

  • Anuncios y contenido personalizados, medición de anuncios y contenido, percepciones del público, y desarrollo de productos

    Los anuncios y el contenido pueden personalizarse en base a su perfil. Se pueden añadir más datos para personalizar mejor los anuncios y contenidos. Se puede medir el rendimiento de los anuncios y contenidos. Se puede obtener la percepción sobre el público que ha visto los anuncios y contenidos. Dichos datos pueden usarse para desarrollar o mejorar la experiencia del usuario, sistemas y software.

Al hacer clic en ‘Estoy De Acuerdo’ usted permitirá el uso de las cookies, identificadores de dispositivo, balizas web u otras tecnologías similares indicadas. Su configuración puede cambiarse desde el navegador de su dispositivo.

Para ciertos fines, los intereses legítimos pueden ser considerados por encima del consentimiento. Puede leer más sobre ello en nuestra Política de Privacidad y Cookies.